Location: Banff
(51.1667°N, 115.5667°W)
Time: 15:41:16
(UTC+00:00)

Tiros 1 - Pass Details

Date: 31 July 2021
Orbit: 630 x 663 km, 48.4° (Epoch: 23 September)

Event Time Altitude Azimuth Distance (km) Brightness Sun altitude
Rises 06:25:32 0° 276° (W) 2,967 10.9 -18.3°
Reaches altitude 10° 06:27:57 10° 271° (W) 2,049 10.0 -18.4°
Maximum altitude 06:32:28 48° 198° (SSW) 846 7.4 -18.7°
Enters shadow 06:33:24 41° 162° (SSE) 928 7.4 -18.7°
